Date String (YYYY-MM-DD hh:mm:ss) UTC,Instrument flags,absolute air pressure of the measurement (hPa),sample flow rate (lpm),inlet stack bypass flow (lpm),air temperature of the measurement (°C),ambient temperature measured by the external sensor (°C),aerosol sample conditioner tube jacket temperature (°C),OPC LED temperature (°C),internal box temperature (°C),relative humidity of the measurement (%),span deviation,mass concentration of particles derived from Lorenz-Mie calculation of OPC scattering (μg/m³),mass concentration of particles derived from Lorenz-Mie calculation of OPC scattering (μg/m³),mass concentration of particles derived from Lorenz-Mie calculation of OPC scattering (μg/m³)
DateTimeUTC,F1_M11,P_M11,Q1_M11,Q2_M11,T1_M11,T2_M11,T3_M11,T4_M11,T5_M11,U1_M11,ZSPAN_M11,X0_M11,X2_M11,X1_M11
2024-06-04 18:00:00,SystemResetWarning,0824.7,5.00,000.00,029.6,029.1,000.0,037.8,031.4,014.7,0000.0,0019.21,0002.41,0000.76
2024-06-04 18:01:00,SystemResetWarning,0824.8,5.00,000.00,029.7,029.2,000.0,037.8,031.5,015.0,0000.0,0012.49,0001.74,0000.73
2024-06-04 18:02:00,SystemResetWarning,0824.8,5.00,000.00,029.7,029.2,000.0,037.8,031.5,014.9,0000.0,0007.39,0001.38,0000.70
2024-06-04 18:03:00,SystemResetWarning,0824.9,5.01,000.00,029.8,029.3,000.0,037.9,031.6,014.9,0000.0,0007.48,0001.39,0000.70
2024-06-04 18:04:00,SystemResetWarning,0824.9,5.00,000.00,029.8,029.4,000.0,037.9,031.6,014.9,0000.0,0007.51,0001.41,0000.70
2024-06-04 18:05:00,SystemResetWarning,0824.8,5.00,000.00,029.9,029.4,000.0,037.9,031.7,015.0,0000.0,0007.79,0001.42,0000.70
2024-06-04 18:06:00,SystemResetWarning,0824.8,5.00,000.00,029.9,029.5,000.0,038.0,031.7,014.3,0000.0,0007.45,0001.39,0000.70
2024-06-04 18:07:00,SystemResetWarning,0824.9,5.00,000.00,029.9,029.4,000.0,038.0,031.7,014.1,0000.0,0006.65,0001.35,0000.70
2024-06-04 18:08:00,SystemResetWarning,0824.9,5.00,000.00,029.8,027.7,000.0,038.1,030.9,014.4,0000.0,0006.73,0001.37,0000.70
2024-06-04 18:09:00,SystemResetWarning,0824.7,5.01,000.00,029.5,026.8,000.0,038.1,030.4,014.2,0000.0,0006.79,0001.38,0000.71
2024-06-04 18:10:00,SystemResetWarning,0824.7,5.00,000.00,029.4,027.2,000.0,038.1,030.5,014.7,0000.0,0007.74,0001.39,0000.71
2024-06-04 18:11:00,SystemResetWarning,0824.7,4.99,000.00,029.4,027.5,000.0,038.0,030.8,014.5,0000.0,0007.87,0001.41,0000.71
2024-06-04 18:12:00,SystemResetWarning,0824.7,5.00,000.00,029.4,027.8,000.0,037.9,030.9,014.6,0000.0,0007.22,0001.45,0000.72
2024-06-04 18:13:00,SystemResetWarning,0824.7,5.01,000.00,029.4,028.1,000.0,037.9,031.0,014.8,0000.0,0007.51,0001.41,0000.72
2024-06-04 18:14:00,SystemResetWarning,0824.7,4.99,000.00,029.5,028.3,000.0,037.9,031.1,015.3,0000.0,0007.90,0001.39,0000.74
2024-06-04 18:15:00,SystemResetWarning,0824.7,4.99,000.00,029.5,028.5,000.0,037.9,031.2,015.2,0000.0,0007.95,0001.42,0000.74
2024-06-04 18:16:00,SystemResetWarning,0824.7,5.00,000.00,029.5,028.7,000.0,037.9,031.3,014.8,0000.0,0007.83,0001.42,0000.75
2024-06-04 18:17:00,SystemResetWarning,0824.7,5.00,000.00,029.6,028.8,000.0,037.9,031.3,014.3,0000.0,0007.35,0001.44,0000.76
2024-06-04 18:18:00,SystemResetWarning,0824.7,5.01,000.00,029.6,029.0,000.0,037.9,031.4,014.1,0000.0,0007.98,0001.46,0000.77
2024-06-04 18:19:00,SystemResetWarning,0824.7,5.01,000.00,029.7,029.1,000.0,037.9,031.5,014.9,0000.0,0008.55,0001.44,0000.78
2024-06-04 18:20:00,SystemResetWarning,0824.7,5.00,000.00,029.7,029.2,000.0,037.9,031.5,015.1,0000.0,0008.49,0001.41,0000.77
2024-06-04 18:21:00,SystemResetWarning,0824.7,4.99,000.00,029.8,029.3,000.0,038.0,031.6,014.8,0000.0,0007.74,0001.43,0000.78
2024-06-04 18:22:00,SystemResetWarning,0824.7,5.00,000.00,029.8,029.3,000.0,038.0,031.6,014.3,0000.0,0007.28,0001.40,0000.78
2024-06-04 18:23:00,SystemResetWarning,0824.7,5.00,000.00,029.9,029.4,000.0,038.0,031.7,014.1,0000.0,0007.26,0001.37,0000.78
2024-06-04 18:24:00,SystemResetWarning,0824.7,5.00,000.00,029.9,029.4,000.0,038.1,031.7,014.1,0000.0,0006.36,0001.41,0000.80
2024-06-04 18:25:00,SystemResetWarning,0824.7,4.99,000.00,029.8,027.7,000.0,038.1,030.8,014.0,0000.0,0006.11,0001.48,0000.81
2024-06-04 18:26:00,SystemResetWarning,0824.7,5.01,000.00,029.3,025.4,000.0,038.1,029.8,014.1,0000.0,0007.80,0001.49,0000.82
2024-06-04 18:27:00,SystemResetWarning,0824.7,5.01,000.00,029.0,025.7,000.0,038.1,029.7,014.7,0000.0,0007.76,0001.50,0000.83
2024-06-04 18:28:00,SystemResetWarning,0824.7,5.01,000.00,029.0,026.2,000.0,037.9,030.0,014.2,0000.0,0007.76,0001.52,0000.83
2024-06-04 18:29:00,SystemResetWarning,0824.7,4.99,000.00,029.0,026.7,000.0,037.8,030.3,014.5,0000.0,0007.27,0001.58,0000.85
2024-06-04 18:30:00,SystemResetWarning,0824.7,5.00,000.00,029.0,027.1,000.0,037.7,030.5,014.6,0000.0,0006.73,0001.66,0000.85
2024-06-04 18:31:00,SystemResetWarning,0824.7,5.00,000.00,029.1,027.5,000.0,037.7,030.6,014.3,0000.0,0006.92,0001.74,0000.87
2024-06-04 18:32:00,SystemResetWarning,0824.7,5.01,000.00,029.1,027.8,000.0,037.7,030.8,014.5,0000.0,0006.94,0001.76,0000.88
2024-06-04 18:33:00,SystemResetWarning,0824.7,5.00,000.00,029.1,028.1,000.0,037.6,030.9,015.0,0000.0,0006.91,0001.76,0000.88
2024-06-04 18:34:00,SystemResetWarning,0824.7,4.99,000.00,029.2,028.3,000.0,037.6,031.0,014.9,0000.0,0007.16,0001.78,0000.88
2024-06-04 18:35:00,SystemResetWarning,0824.7,5.00,000.00,029.3,028.5,000.0,037.6,031.0,014.3,0000.0,0007.54,0001.76,0000.88
2024-06-04 18:36:00,SystemResetWarning,0824.8,5.01,000.00,029.3,028.6,000.0,037.6,031.1,014.3,0000.0,0007.12,0001.69,0000.86
2024-06-04 18:37:00,SystemResetWarning,0824.8,5.01,000.00,029.4,028.7,000.0,037.7,031.2,014.7,0000.0,0004.94,0001.68,0000.86
2024-06-04 18:38:00,SystemResetWarning,0824.8,4.99,000.00,029.4,028.9,000.0,037.7,031.2,014.2,0000.0,0005.46,0001.74,0000.85
2024-06-04 18:39:00,SystemResetWarning,0824.8,4.99,000.00,029.5,029.0,000.0,037.7,031.3,014.2,0000.0,0005.71,0001.79,0000.85
2024-06-04 18:40:00,SystemResetWarning,0824.8,5.00,000.00,029.5,029.0,000.0,037.7,031.4,014.2,0000.0,0005.46,0001.77,0000.84
2024-06-04 18:41:00,SystemResetWarning,0824.8,5.00,000.00,029.6,029.1,000.0,037.7,031.4,014.3,0000.0,0005.02,0001.74,0000.84
2024-06-04 18:42:00,SystemResetWarning,0824.8,5.01,000.00,029.7,029.2,000.0,037.8,031.5,013.7,0000.0,0004.95,0001.71,0000.84
2024-06-04 18:43:00,SystemResetWarning,0824.9,5.00,000.00,029.7,029.3,000.0,037.8,031.5,013.3,0000.0,0004.88,0001.72,0000.84
2024-06-04 18:44:00,SystemResetWarning,0824.8,4.99,000.00,029.8,029.3,000.0,037.8,031.6,013.6,0000.0,0005.10,0001.71,0000.85
2024-06-04 18:45:00,SystemResetWarning,0824.8,5.00,000.00,029.8,029.4,000.0,037.9,031.7,014.4,0000.0,0004.85,0001.64,0000.85
2024-06-04 18:46:00,SystemResetWarning,0824.7,5.00,000.00,029.9,029.3,000.0,037.9,031.6,014.1,0000.0,0004.17,0001.64,0000.85
2024-06-04 18:47:00,SystemResetWarning,0824.8,4.99,000.00,029.7,027.5,000.0,038.0,030.7,013.8,0000.0,0004.16,0001.67,0000.87
2024-06-04 18:48:00,SystemResetWarning,0824.7,5.02,000.00,029.4,026.8,000.0,038.0,030.3,014.4,0000.0,0004.17,0001.66,0000.87
2024-06-04 18:49:00,SystemResetWarning,0824.7,4.99,000.00,029.3,027.1,000.0,038.0,030.4,013.9,0000.0,0003.69,0001.61,0000.87
2024-06-04 18:50:00,SystemResetWarning,0824.7,5.00,000.00,029.3,027.5,000.0,037.9,030.6,014.3,0000.0,0003.57,0001.60,0000.88
2024-06-04 18:51:00,SystemResetWarning,0824.7,5.01,000.00,029.3,027.8,000.0,037.8,030.8,013.6,0000.0,0003.44,0001.54,0000.89
2024-06-04 18:52:00,SystemResetWarning,0824.7,5.01,000.00,029.4,028.1,000.0,037.8,031.0,013.8,0000.0,0003.27,0001.48,0000.89
2024-06-04 18:53:00,SystemResetWarning,0824.8,4.99,000.00,029.4,028.3,000.0,037.8,031.1,013.8,0000.0,0003.19,0001.45,0000.89
2024-06-04 18:54:00,SystemResetWarning,0824.8,5.00,000.00,029.4,028.5,000.0,037.8,031.2,013.4,0000.0,0003.17,0001.41,0000.88
2024-06-04 18:55:00,SystemResetWarning,0824.9,5.00,000.00,029.5,028.7,000.0,037.8,031.3,013.0,0000.0,0004.36,0001.42,0000.89
2024-06-04 18:56:00,SystemResetWarning,0824.9,5.00,000.00,029.6,028.8,000.0,037.8,031.3,013.3,0000.0,0004.36,0001.45,0000.90
2024-06-04 18:57:00,SystemResetWarning,0824.9,5.00,000.00,029.6,029.0,000.0,037.8,031.4,013.4,0000.0,0004.26,0001.46,0000.90
2024-06-04 18:58:00,SystemResetWarning,0824.9,5.00,000.00,029.7,029.1,000.0,037.8,031.4,013.3,0000.0,0005.76,0001.45,0000.90
2024-06-04 18:59:00,SystemResetWarning,0824.9,5.00,000.00,029.7,029.2,000.0,037.8,031.5,013.8,0000.0,0006.60,0001.45,0000.91
